sat.trackr.live / text

‹ back to catalog

QUETZSAT 1

NORAD 37826 · 2011-054A

PAYLOAD ACTIVE UNKNOWN

§ Identity

Operator
Country
MEX
Launch date
2011-09-29
Launch site
TYMSC
Launch vehicle
Mass (kg)
RCS (m²)
219.48

Purposes: comms

External: N2YO · Heavens-Above · Gunter

§ Orbital elements

Epoch: 2026-09-20T04:24:58.026816Z

Period
1,436.08 min
Inclination
0.0163°
Eccentricity
0.0002672
Mean motion
1.00272914 rev/d
Perigee alt
35,775.0 km
Apogee alt
35,797.5 km
Semi-major
42,164.4 km
B*
0.0000e+0
RAAN
263.7235°
Arg perigee
271.1824°
Mean anomaly
173.4334°
Rev number
5,082

§ Raw data

QUETZSAT 11 37826U 11054A   26263.18400494 -.00000246  00000+0  00000+0 0  99972 37826   0.0163 263.7235 0002672 271.1824 173.4334  1.00272914 50824

JSON: /api/v1/satellites/37826 · /tle

For live sub-satellite position, see the globe view (requires WebGL).

§ Visibility from observer

Set your observer location to see the next 7 days of passes ≥ 10°. The values pass through the URL so the page stays shareable.

No JS? Fill the form by hand. The geolocation button needs JavaScript.